Regional Weather Roundup
Issued by NWS Little Rock, AR

Home | Current Version | Previous Version | Text Only | Print | Product List | Glossary Off
Versions: 1 2 3 4 5 6 7 8 9 10 11 12 13 14 15 16 17 18 19 20 21 22 23 24 25 26 27 28 29 30 31 32 33 34 35 36 37 38 39 40 41 42 43 44 45 46 47 48 49 50

000
ASUS44 KLZK 040505
RWRLZK

WEATHER ROUNDUP FOR ARKANSAS
NATIONAL WEATHER SERVICE LITTLE ROCK AR
1200 AM CDT SAT JUL 04 2015

NOTE: "FAIR" INDICATES FEW OR NO CLOUDS BELOW 12,000 FEET WITH NO
SIGNIFICANT WEATHER AND/OR OBSTRUCTIONS TO VISIBILITY.

ARZ001-003-010-029-040600-
NORTHWEST ARKANSAS

CITY           SKY/WX    TMP DP  RH WIND       PRES   REMARKS
FAYETTEVILLE   PTCLDY    66  66 100 CALM      29.96S FOG
FORT SMITH     MOCLDY    72  68  87 CALM      29.93F
HARRISON       FOG       68  68 100 NW3       29.96S VSB<1/4
BENTONVILLE    CLEAR    N/A N/A N/A CALM      29.96F
ROGERS         CLEAR     69  68  96 CALM      29.97S
SILOAM SPGS    CLEAR     68  63  83 CALM        N/A
HIGHFILL       PTCLDY    69  68  96 CALM      29.96S
$$

ARZ004-005-016-040600-
NORTH CENTRAL ARKANSAS

CITY           SKY/WX    TMP DP  RH WIND       PRES   REMARKS
BATESVILLE     MOCLDY    70  66  88 N3        29.93S
FLIPPIN        CLEAR     70  66  88 CALM      29.91S
MTN HOME       CLEAR     68  67  96 CALM      29.93S
$$

ARZ040-041-040600-
WEST CENTRAL ARKANSAS

CITY           SKY/WX    TMP DP  RH WIND       PRES   REMARKS
MENA           MOCLDY    72  70  94 W5        29.96F
MOUNT IDA      MOCLDY    73  71  93 VRB3      29.94F
$$

ARZ009-017-025-026-028-040600-
NORTHEAST ARKANSAS

CITY           SKY/WX    TMP DP  RH WIND       PRES   REMARKS
JONESBORO      MOCLDY    71  70  96 W3        29.91S
NEWPORT        CLOUDY    73  72  97 CALM      29.93S
WALNUT RIDGE   PTCLDY    72  70  94 SW5       29.91S
BLYTHEVILLE    MOCLDY    74  73  97 CALM      29.92R
$$

ARZ022-023-033-042-044-040600-
CENTRAL ARKANSAS

CITY           SKY/WX    TMP DP  RH WIND       PRES   REMARKS
LITTLE ROCK    LGT RAIN  71  66  84 W8        29.91F
N LITTLE ROCK  CLOUDY    69  68  99 W3        29.91F
SEARCY         CLOUDY    73  71  93 SW3       29.93R
HOT SPRINGS    LGT RAIN  71  68  90 E7        29.95F FOG
RUSSELLVILLE   MOCLDY    71  69  93 CALM      29.92F
CLINTON        MOCLDY    68  68 100 CALM      29.94R FOG
$$

ARZ036-040600-
EAST ARKANSAS

CITY           SKY/WX    TMP DP  RH WIND       PRES   REMARKS
WEST MEMPHIS   CLOUDY    72  72 100 S3        29.92S
$$

ARZ050-053-066-070-073-040600-
SOUTHWEST ARKANSAS

CITY           SKY/WX    TMP DP  RH WIND       PRES   REMARKS
ARKADELPHIA    FAIR      76  76 100 CALM      29.93F FOG
CAMDEN         MOCLDY    77  73  88 CALM      29.92F FOG
TEXARKANA      CLOUDY    78  76  93 SW7       29.93F
EL DORADO      MOCLDY    78  75  90 S6        29.94F
DE QUEEN       TSTM      76  75  97 CALM      29.91S FOG
$$

ARZ056-057-069-040600-
SOUTHEAST ARKANSAS

CITY           SKY/WX    TMP DP  RH WIND       PRES   REMARKS
PINE BLUFF     CLOUDY    76  74  93 SW6       29.92F
STUTTGART      CLOUDY    75  72  88 NW12      29.90R
MONTICELLO     CLOUDY    77  75  93 SW6       29.93F

$$





USA.gov is the U.S. government's official web portal to all federal, state and local government web resources and services.